Wind_Speed
35 36 37 36 36 37 36 35 34 32 33 33 32 30 28 27 27 27 27 27 27 26 26 26 27 28 28 28 27 27 27 28 30 30 30 30 30 29 29 29 29 29 29 28 27 26 25 26 26 26 28 30 30 31 31 32 32 32 32 32 32 31 32 32 31 27 25 25 25 24 24 24 24 23 23 23 23 23 24 23 23 22 21 20 19
37 37 38 39 39 39 38 37 35 34 34 34 32 30 28 28 28 28 27 28 28 27 27 27 28 29 29 28 28 27 26 26 27 28 29 30 30 29 29 30 29 30 32 32 30 28 27 28 28 27 29 30 30 31 31 32 33 34 34 34 34 33 34 34 33 31 29 27 26 26 26 26 26 25 24 24 24 25 26 26 26 24 21 20 20
38 38 39 41 41 41 40 38 36 36 36 33 31 29 29 29 29 29 28 29 29 28 29 29 29 30 30 29 28 26 25 25 25 26 27 29 30 30 30 29 28 29 30 32 32 31 29 28 28 28 29 30 31 31 31 32 33 34 34 35 35 34 34 34 35 35 33 30 29 28 28 28 28 28 26 25 25 25 27 28 27 23 19 19 20
39 41 42 43 42 44 43 39 36 35 35 33 30 29 30 30 29 29 29 30 30 29 30 30 30 31 31 30 29 27 26 25 24 24 25 26 28 30 32 32 32 31 30 30 31 31 31 29 28 29 30 30 31 31 32 33 33 34 34 34 35 35 34 34 34 35 35 34 32 31 30 30 30 29 27 26 26 26 27 28 26 22 21 21 21
36 40 42 42 41 41 42 40 37 33 31 32 32 31 31 30 28 29 29 30 30 30 31 31 31 32 32 32 31 29 28 26 26 26 25 26 26 28 30 33 35 37 36 35 33 32 32 30 28 29 30 30 30 31 32 33 33 34 33 33 34 34 34 35 34 34 36 36 34 32 32 32 32 31 29 27 27 27 27 27 25 23 23 23 22
34 38 41 40 37 36 35 36 38 34 31 32 35 35 32 28 27 28 29 30 30 30 30 31 32 33 34 34 33 32 30 29 29 29 28 28 28 28 29 31 33 36 38 39 37 36 35 33 30 31 32 31 30 31 32 33 33 33 33 32 33 34 35 36 36 36 36 36 35 34 33 33 34 33 32 30 29 28 28 28 26 25 24 24 23
36 41 39 35 34 34 33 33 35 35 33 33 34 33 30 26 26 28 28 29 29 29 29 30 32 33 34 35 35 34 33 33 32 32 32 32 31 31 30 31 32 33 36 38 38 37 36 35 34 34 34 33 32 31 32 33 33 33 33 33 33 34 36 36 37 38 37 37 37 36 35 35 36 35 34 32 31 30 30 28 27 27 27 26 24
35 37 33 26 26 29 30 30 31 32 32 31 30 29 26 25 26 27 27 27 27 28 29 30 31 32 34 35 36 36 36 35 35 35 35 34 34 34 34 33 33 33 34 35 36 36 36 35 36 36 35 35 33 33 33 33 33 33 33 34 34 34 35 36 36 37 38 37 37 38 37 36 37 38 36 34 34 33 30 28 28 28 28 27 26
28 29 26 22 21 23 25 27 27 29 29 27 28 27 24 24 25 25 25 25 25 26 28 28 30 31 33 34 35 36 37 37 37 37 37 36 36 36 36 36 35 34 34 34 35 36 36 35 35 36 37 36 35 34 34 34 35 34 34 33 34 34 34 34 35 36 37 37 37 38 39 38 38 39 37 35 33 33 31 29 30 29 29 29 28
22 23 23 22 21 22 24 25 26 26 26 25 26 25 23 23 23 22 22 23 24 25 26 26 28 30 32 33 34 35 36 37 38 39 39 39 39 38 38 38 37 36 35 34 34 36 36 37 36 36 37 37 36 35 35 35 35 35 34 34 34 35 34 34 35 36 36 36 36 37 39 40 39 39 38 36 34 33 32 31 31 30 30 30 29
19 19 20 20 21 22 22 23 24 24 24 24 23 23 23 23 21 20 20 21 21 22 23 25 27 28 30 32 33 34 35 37 39 40 41 41 41 40 39 38 38 38 37 35 34 34 36 37 37 37 37 37 37 37 37 37 36 36 35 35 35 35 35 35 34 35 35 36 36 36 38 40 39 38 38 37 36 36 34 32 33 32 32 32 31
17 17 16 17 19 20 21 22 23 23 23 22 21 22 23 21 18 17 17 18 20 21 23 25 27 28 30 32 33 34 36 37 39 41 42 43 43 42 41 39 37 37 36 35 34 33 34 36 37 38 38 38 38 38 38 38 38 37 36 36 36 36 36 36 35 34 35 35 35 36 36 37 38 38 38 37 37 38 36 34 34 34 33 33 31
15 15 15 16 18 19 20 21 21 21 21 21 21 21 22 19 17 16 16 18 20 22 24 26 28 29 30 31 33 34 35 37 39 40 42 43 43 42 41 39 37 36 35 34 33 33 33 34 35 36 37 38 39 40 40 39 39 39 38 37 37 36 36 36 35 35 35 35 36 37 36 36 36 37 37 36 36 39 39 37 35 34 33 33 31
14 14 15 16 17 18 19 19 19 19 20 21 22 22 22 20 18 16 18 20 22 24 26 28 30 30 30 31 31 32 33 35 37 39 40 41 41 41 40 38 36 33 32 32 31 31 31 32 33 34 35 37 38 39 41 41 41 41 40 40 39 38 36 36 35 35 35 36 37 37 35 36 36 36 37 38 38 40 41 40 37 34 33 33 32
15 14 14 16 17 19 19 19 19 19 20 21 22 23 23 22 19 18 19 21 24 26 28 30 31 31 31 30 30 31 32 33 35 36 37 37 37 37 36 35 32 30 29 29 29 29 30 30 31 32 33 34 35 36 38 41 42 43 42 42 41 39 38 37 36 36 36 36 37 36 34 35 35 36 38 40 41 42 42 42 40 37 34 35 34
18 16 15 15 16 17 18 19 19 19 19 20 21 22 23 23 20 20 21 22 25 27 29 31 32 32 31 30 30 30 30 32 34 34 34 34 33 31 31 30 28 27 27 27 28 28 28 29 30 30 31 31 32 33 34 37 40 42 44 44 43 42 41 39 38 38 37 37 38 36 35 35 35 37 39 40 42 44 44 44 43 39 36 37 37
22 20 17 16 16 17 17 18 18 18 19 21 21 22 24 22 19 19 21 23 26 28 30 32 33 32 31 30 29 29 29 31 33 34 34 33 31 28 27 26 25 25 25 26 27 27 27 28 28 28 28 29 29 30 31 33 35 38 41 43 44 44 42 41 40 40 40 39 39 38 37 36 36 38 40 40 41 44 45 45 43 42 41 41 40
25 23 20 17 16 17 17 18 18 18 19 19 19 21 21 18 17 19 21 23 26 29 32 34 34 31 30 29 29 28 28 29 32 33 34 33 30 27 26 25 24 24 25 25 25 25 25 26 27 27 27 27 28 29 30 31 32 34 36 39 41 42 42 41 41 42 42 42 41 41 40 39 39 39 40 40 41 42 44 44 43 43 42 40 40
26 24 22 20 17 16 17 18 18 19 19 20 20 21 20 17 17 20 22 24 27 30 33 34 32 30 29 28 28 28 27 28 30 32 33 33 31 27 26 25 25 24 24 23 23 23 24 25 26 27 27 27 28 29 30 32 32 32 33 35 38 39 38 39 40 42 43 44 44 44 43 42 41 41 41 41 42 42 43 43 43 43 42 40 40
27 25 23 22 20 17 17 18 19 20 22 23 24 24 22 18 17 20 22 25 28 31 32 32 30 28 26 25 25 25 26 27 29 32 33 32 31 28 26 26 26 25 24 23 22 22 23 24 25 27 28 28 28 29 31 32 33 33 32 34 36 36 36 37 38 40 42 43 44 45 45 44 43 42 43 43 42 42 43 43 43 45 44 43 42
27 26 25 24 22 19 18 19 20 21 22 23 25 25 21 17 18 21 23 26 29 31 31 30 28 25 23 22 22 24 26 28 29 31 32 31 30 29 27 27 27 26 23 21 22 22 23 23 25 26 27 28 28 29 31 32 34 34 33 34 34 35 35 35 37 39 40 41 43 43 44 45 44 43 43 43 42 42 43 44 46 47 46 45 44
25 26 26 25 23 21 22 22 22 21 21 22 23 22 19 18 20 23 24 26 28 29 30 29 27 23 21 22 23 24 26 27 28 29 29 30 30 29 27 27 27 26 23 21 21 23 23 23 24 25 26 27 28 29 30 32 33 34 34 34 34 34 34 35 35 37 39 39 40 41 42 43 43 43 43 43 42 40 41 43 47 48 45 42 40
23 25 27 27 25 23 24 23 23 22 21 21 21 19 19 21 23 23 23 25 26 28 28 27 25 23 21 22 23 25 25 25 25 26 27 28 29 29 27 27 27 25 22 21 22 23 22 22 22 23 24 25 26 28 30 31 33 34 34 34 33 33 33 34 35 36 38 38 39 39 40 40 41 40 40 39 39 39 41 43 44 45 44 40 38
24 25 27 28 26 25 23 23 24 24 23 22 21 20 21 22 23 22 22 23 25 26 27 26 24 23 22 22 23 24 24 24 24 25 25 26 28 29 27 26 25 24 22 21 23 23 22 21 21 22 23 24 25 26 28 29 31 32 32 32 32 32 32 32 33 34 35 36 37 37 37 37 37 37 37 38 38 39 40 41 41 43 44 41 39
25 27 29 29 27 25 25 25 25 24 23 23 22 21 21 21 20 20 20 21 23 25 26 26 25 23 22 22 23 23 24 24 25 25 25 26 28 28 27 26 24 24 23 23 24 24 23 22 21 22 22 23 23 24 25 26 28 29 30 31 31 31 30 31 32 32 32 32 32 32 31 31 32 33 35 36 37 37 39 42 43 44 42 39 38
23 25 28 29 28 28 27 26 24 23 22 22 20 18 17 17 17 18 20 21 23 25 27 27 25 23 23 23 22 23 23 24 25 26 27 27 28 28 27 26 25 25 24 24 25 25 23 22 22 22 22 22 22 22 23 24 25 26 27 27 27 27 27 28 28 29 29 29 28 27 26 26 28 31 33 33 32 34 37 38 38 37 36 35 34
18 20 22 24 26 27 26 25 23 21 21 20 17 14 14 15 17 19 20 22 23 26 28 26 24 23 24 23 22 22 22 22 23 25 26 27 27 27 27 26 25 27 27 25 25 24 23 23 23 22 22 22 21 21 22 23 23 24 23 23 22 22 22 21 22 24 25 26 26 26 25 25 24 26 29 27 24 26 30 30 28 28 30 32 33
13 14 15 17 19 20 21 20 19 19 18 16 14 12 13 16 18 20 21 22 25 28 28 24 22 24 24 22 21 21 21 21 22 22 23 24 24 25 26 26 26 27 27 26 24 22 22 23 23 23 22 21 20 20 20 20 21 22 22 21 20 19 18 18 19 21 23 23 23 24 24 23 21 21 23 26 27 26 28 28 27 28 30 32 33
12 12 12 13 14 15 16 17 17 16 15 13 13 14 15 18 20 21 22 24 28 29 25 21 22 25 24 22 21 21 21 22 23 22 22 22 22 23 25 25 25 26 26 25 21 20 21 23 23 22 21 20 19 17 16 17 20 21 22 22 21 20 19 19 19 21 22 23 22 20 20 21 21 20 24 30 30 27 27 27 27 28 30 31 31
12 13 13 14 14 15 16 16 15 14 12 12 14 16 18 20 21 22 23 26 28 25 21 21 24 25 23 21 21 21 22 23 23 22 22 21 21 21 22 23 23 24 23 20 16 17 20 21 21 21 20 19 17 15 14 16 19 20 20 22 22 21 19 19 19 20 22 23 24 21 20 22 22 23 27 31 30 26 24 25 27 28 28 28 29
12 13 14 15 15 15 15 14 12 11 12 14 15 16 18 20 21 22 25 25 21 19 20 24 27 25 22 20 20 21 22 23 23 22 22 21 19 18 17 17 18 18 17 14 14 16 17 18 18 18 19 18 16 15 14 15 17 17 17 20 22 21 19 18 19 20 20 21 23 24 24 25 26 26 29 30 28 25 24 25 26 28 29 30 29
13 13 15 17 17 16 15 13 12 14 15 16 17 18 19 20 21 23 24 21 18 19 23 27 28 25 21 19 20 21 22 23 23 23 22 20 18 15 14 12 12 13 13 12 13 14 14 15 16 16 17 16 16 15 15 15 16 16 16 18 20 20 19 18 18 19 19 20 21 24 25 27 27 28 30 30 26 22 19 19 20 23 27 29 26
13 14 15 17 19 20 17 15 16 18 18 18 19 20 20 21 23 23 20 18 19 22 25 27 27 23 20 19 20 21 22 23 24 23 21 18 16 15 14 12 11 12 12 12 13 12 11 13 14 15 16 15 15 15 15 14 12 12 13 15 17 19 19 18 18 18 19 20 21 23 25 26 26 25 26 25 21 16 14 14 15 17 20 20 19
14 14 15 17 20 21 19 17 19 21 20 20 20 19 20 23 23 19 16 18 21 23 26 27 24 21 18 18 20 20 21 23 23 22 20 16 13 12 13 13 12 11 11 12 13 12 11 12 13 14 15 15 15 17 17 14 11 10 10 11 12 14 16 17 18 18 19 21 22 23 24 24 24 23 22 19 16 14 14 14 14 14 15 15 16
16 16 16 17 19 20 20 21 22 21 19 19 19 19 21 21 18 15 16 19 21 23 25 24 21 19 18 19 19 20 21 21 22 20 17 13 10 10 12 12 11 10 10 11 12 12 12 13 14 14 14 15 15 17 18 16 12 8 7 6 7 8 10 12 14 16 18 20 21 22 23 23 23 22 20 18 15 14 13 13 13 13 14 16 17
18 17 17 17 17 19 21 22 21 18 16 17 18 20 20 18 16 16 18 19 20 23 24 21 19 19 19 19 19 20 20 20 21 18 13 10 9 9 10 10 10 10 10 11 12 13 14 15 15 15 14 14 14 15 15 14 12 9 8 8 7 7 7 8 9 10 13 14 15 17 19 20 20 18 16 14 13 12 13 12 12 13 14 15 16
19 19 18 17 17 17 19 20 18 15 16 17 19 20 19 17 17 17 17 17 19 22 21 18 18 19 19 19 20 20 20 20 19 15 13 11 8 7 7 8 10 11 11 11 12 13 14 15 15 15 14 14 14 14 13 12 10 9 9 9 9 9 9 9 8 8 9 10 12 13 14 14 14 13 12 12 11 12 13 13 12 13 14 15 16
20 19 18 18 17 17 18 18 16 15 16 18 19 18 17 17 16 14 14 14 17 19 19 18 19 19 19 19 20 20 20 19 18 16 16 14 10 9 9 10 11 12 13 13 13 14 14 15 15 15 15 14 13 12 13 12 11 10 10 11 12 12 11 10 10 10 10 10 11 12 12 12 11 11 11 11 11 11 12 12 13 14 15 16 16
21 20 18 18 18 18 18 17 16 16 17 17 16 15 16 15 13 11 11 12 15 17 17 18 19 19 19 19 21 21 20 19 18 19 19 18 15 13 13 13 13 15 16 17 17 16 16 17 17 16 16 15 13 11 11 12 11 10 11 12 12 12 10 10 10 11 11 11 11 11 11 11 11 11 11 11 11 12 12 12 13 14 15 15 16
23 21 19 19 19 19 18 17 16 16 17 16 14 13 14 15 12 10 10 12 14 15 16 17 19 19 19 20 21 21 21 20 20 21 22 21 20 18 18 18 18 19 19 20 20 19 18 18 17 17 17 16 14 11 10 10 10 10 11 11 11 10 9 8 9 10 10 10 11 11 11 11 10 10 10 10 11 11 11 12 12 13 14 15 17
24 23 21 20 19 19 19 18 16 15 15 15 15 14 14 14 12 11 11 12 13 14 14 17 19 20 20 20 21 22 22 22 22 22 23 23 23 22 22 23 23 23 22 22 22 22 21 19 18 17 16 16 14 12 11 9 9 9 9 9 9 9 9 9 9 9 9 9 9 10 11 11 10 10 10 10 11 12 12 13 14 15 16 17 18
25 24 23 22 21 20 20 19 17 15 14 14 15 14 14 13 12 12 13 13 13 13 14 15 18 21 21 21 21 22 23 23 23 23 23 23 24 24 24 25 25 24 24 25 25 24 24 22 20 18 16 16 15 14 12 10 9 9 8 8 8 9 10 10 10 9 9 9 10 10 11 12 11 11 11 11 12 13 14 15 16 17 18 19 20
25 26 25 24 23 22 21 19 18 17 17 16 16 15 14 13 13 14 15 15 14 14 14 14 15 20 22 22 22 23 23 23 23 23 23 23 23 24 24 24 25 24 24 24 24 24 24 24 22 19 16 16 16 15 14 12 11 9 9 8 9 10 11 12 11 10 10 9 9 10 11 12 12 12 11 11 12 13 14 16 17 19 20 21 22
26 27 27 27 26 25 22 21 19 19 18 18 17 17 16 16 16 16 16 16 15 15 15 14 14 18 22 23 22 22 23 23 23 23 23 23 23 24 24 24 24 23 23 23 23 22 22 23 23 21 18 16 16 16 16 14 13 11 10 10 10 11 11 12 12 11 10 9 8 8 9 10 11 12 12 13 13 14 16 17 19 20 21 22 23
27 27 27 28 28 28 26 23 21 19 18 19 19 18 18 18 17 17 17 17 16 16 16 16 15 16 20 22 23 22 22 23 24 24 24 24 24 24 24 23 23 22 22 22 22 22 21 21 21 21 20 18 17 17 17 16 15 13 12 12 12 11 11 11 12 12 12 10 9 9 9 9 10 11 12 14 15 17 17 18 20 21 22 23 24
27 27 27 28 29 30 28 26 24 21 20 19 20 19 19 19 18 18 18 18 17 17 17 17 16 15 17 21 23 23 23 23 24 24 25 25 24 24 24 23 23 22 22 22 22 22 21 20 21 21 21 20 20 19 19 19 18 16 15 15 14 13 13 12 13 14 14 13 12 11 11 10 10 10 12 13 15 17 19 20 21 21 22 23 23
28 28 28 28 29 30 30 29 27 25 23 21 21 20 20 19 19 19 18 18 18 18 18 18 18 17 17 19 22 24 24 24 24 25 25 25 25 25 25 24 23 23 22 22 22 22 21 21 20 20 21 21 21 21 21 21 20 19 18 18 17 16 16 15 15 15 16 16 15 14 13 12 11 11 12 13 14 16 17 19 20 20 20 21 21
29 29 28 28 29 31 31 30 29 28 25 23 22 21 20 19 19 19 19 19 19 19 19 18 18 19 19 18 20 22 24 25 26 26 26 26 25 25 25 25 24 24 23 23 22 22 22 21 21 20 21 21 22 22 22 22 21 21 21 20 19 18 18 18 18 18 18 18 18 18 17 16 14 14 13 13 13 14 15 17 18 18 19 19 20
27 28 28 28 29 31 32 32 31 29 27 25 23 21 21 20 20 20 20 21 21 21 20 18 18 19 20 19 19 20 22 24 25 26 26 26 26 26 26 25 25 24 24 23 23 22 22 21 21 21 21 21 22 22 22 22 22 22 22 21 21 20 20 21 21 21 21 21 21 22 22 22 20 17 16 15 14 14 15 16 17 17 18 18 19
25 26 27 28 29 30 32 33 32 30 29 27 24 23 22 21 21 21 21 21 22 21 20 19 18 18 19 20 20 19 20 21 23 24 25 25 25 26 26 26 25 25 24 23 23 22 22 22 21 21 21 21 22 22 22 23 23 23 22 22 21 21 22 23 23 24 24 24 23 23 24 24 23 22 20 18 17 16 16 16 17 17 17 17 17
25 26 27 28 29 30 31 32 32 31 30 28 26 24 22 22 20 20 20 21 21 21 20 19 18 18 19 20 20 20 19 19 21 22 23 23 24 24 25 25 24 23 22 20 20 20 20 20 19 19 20 20 20 21 21 22 22 22 22 22 22 22 23 23 24 25 26 26 25 24 24 24 25 25 24 22 21 19 18 17 18 19 18 17 17
Wind_Direction
241 244 247 250 252 254 255 256 257 260 264 268 270 271 272 274 275 277 278 280 279 275 273 274 277 278 278 277 276 274 271 268 267 266 265 263 261 259 258 259 261 263 265 265 263 262 262 261 260 258 256 256 256 257 258 258 257 257 257 258 260 262 264 264 262 255 247 243 243 244 246 249 252 254 256 258 260 259 258 258 260 263 266 270 273
241 244 246 248 250 252 254 255 257 259 262 264 267 269 271 272 273 274 275 277 277 275 272 273 275 277 277 277 276 274 272 269 267 265 264 263 263 262 262 263 264 265 266 267 264 262 261 261 261 258 257 257 257 257 258 258 258 258 258 260 261 263 265 266 265 263 257 252 247 244 245 247 250 253 256 258 260 262 263 260 257 258 262 266 269
243 245 247 248 249 250 250 250 251 254 257 260 262 264 267 269 271 273 274 274 274 273 271 272 275 277 277 276 276 275 273 272 269 267 265 263 262 260 259 261 263 264 265 265 264 262 261 261 262 261 259 258 257 257 257 258 258 258 258 260 261 263 264 266 266 265 262 258 252 246 245 247 249 250 253 256 259 262 265 265 265 268 272 273 270
244 244 246 248 249 250 252 253 251 249 249 252 255 257 259 263 267 269 271 272 271 270 270 271 274 275 275 275 274 273 273 274 274 272 270 268 264 260 257 255 257 260 263 264 264 264 263 262 261 262 262 261 260 260 259 259 259 258 258 258 260 262 264 265 265 265 263 259 255 249 245 246 248 249 251 254 257 261 264 267 273 277 276 274 271
250 249 248 248 249 250 253 258 258 253 248 247 249 250 253 257 262 265 267 268 269 269 270 271 273 274 273 273 271 271 272 273 274 275 274 273 270 267 262 257 255 256 259 262 263 264 265 264 262 263 264 265 264 262 261 260 260 259 258 258 258 260 261 263 265 266 264 260 257 253 247 246 249 250 251 252 255 259 263 267 271 273 272 272 270
257 256 255 254 255 255 255 257 259 259 256 251 248 247 249 254 259 261 263 265 268 270 271 272 273 272 272 270 269 269 269 270 272 273 274 275 274 272 269 264 260 257 257 259 261 261 263 265 265 265 266 267 267 264 261 260 260 260 259 258 258 258 259 261 262 264 264 261 257 253 249 247 248 250 252 253 254 257 261 264 268 270 271 272 270
261 265 266 260 254 256 257 256 257 259 256 253 252 251 249 251 256 259 262 265 269 272 274 273 272 271 270 269 268 267 268 268 269 271 272 273 273 272 271 269 266 262 259 259 260 261 261 262 264 265 267 268 268 265 262 261 261 261 260 259 259 259 260 260 261 261 262 261 256 252 250 248 247 248 250 252 253 254 257 262 267 269 270 272 271
269 274 276 263 249 253 256 253 255 256 252 251 255 255 250 249 255 260 263 266 270 272 272 271 270 269 268 267 267 267 267 268 269 270 271 272 272 272 271 270 268 266 263 261 260 260 260 260 261 262 264 266 266 265 263 262 262 261 261 261 260 260 261 262 262 261 261 260 256 252 251 250 248 247 248 251 253 255 257 262 265 266 267 267 267
271 271 270 261 251 250 249 247 249 249 247 248 250 250 250 253 257 260 262 264 266 267 266 266 266 266 266 266 265 266 267 269 270 272 272 273 273 272 271 270 269 268 266 264 262 261 260 259 259 259 261 263 263 263 262 261 261 261 260 260 260 261 262 263 263 261 260 259 257 253 251 251 251 250 250 252 255 255 256 258 260 262 263 264 263
270 263 259 257 251 244 240 241 242 240 240 244 246 247 252 256 257 258 259 260 260 261 263 265 266 267 267 267 267 267 268 270 271 272 273 273 273 273 272 271 271 270 269 267 264 262 261 260 259 258 259 260 261 261 261 260 261 261 260 260 260 261 262 263 263 261 259 259 258 255 253 252 252 254 253 252 254 255 253 253 257 259 261 263 264
270 264 257 253 248 242 237 236 236 236 239 241 241 246 254 255 254 255 258 261 263 266 269 271 272 273 273 271 271 270 270 270 271 272 273 273 274 274 273 273 272 271 270 269 267 265 263 261 260 258 258 258 259 259 260 259 260 261 261 260 260 261 262 262 262 260 259 259 259 257 256 255 255 257 257 254 252 254 254 252 253 256 259 262 264
268 264 256 249 244 239 234 233 234 238 241 240 239 246 252 251 251 256 264 272 277 279 280 280 280 281 279 277 274 272 271 271 271 272 272 273 274 274 275 274 273 272 271 270 268 266 265 263 262 260 258 258 258 258 258 259 259 260 260 259 259 259 260 261 262 261 260 259 259 258 257 257 257 258 260 258 253 254 256 254 252 253 257 262 264
266 262 254 247 242 237 235 236 237 238 240 238 240 247 251 251 256 266 278 287 289 289 288 287 287 287 285 281 277 275 274 273 273 273 273 273 273 274 275 275 274 272 270 268 268 267 267 267 265 264 262 260 259 258 258 258 258 258 258 257 257 257 258 260 261 261 261 260 259 259 259 258 257 257 258 259 257 255 255 255 253 251 255 259 261
266 262 255 249 244 240 238 239 239 239 239 240 245 251 253 255 263 275 285 291 293 293 293 293 294 293 290 285 281 278 276 275 275 274 274 273 272 273 274 275 274 272 268 267 267 268 269 269 269 267 266 264 262 260 258 257 256 256 256 255 255 256 256 257 259 260 261 261 261 261 262 261 261 259 256 255 256 256 256 256 254 251 252 256 256
272 265 257 251 247 243 240 239 239 240 241 245 251 255 256 259 266 274 281 288 291 292 294 295 296 296 293 289 285 282 279 278 276 275 275 274 273 272 273 274 274 272 269 268 269 270 271 271 271 270 269 267 265 263 260 258 257 256 255 254 254 255 256 256 257 259 260 261 262 263 263 262 262 260 255 252 252 254 256 256 254 250 247 248 249
279 273 264 255 250 245 242 241 241 241 243 248 253 256 256 257 262 268 275 283 288 290 293 296 296 294 292 290 288 284 282 280 279 279 278 278 277 274 273 272 272 270 270 270 271 272 272 273 272 272 271 270 269 267 264 261 258 256 256 255 254 255 256 256 257 258 259 260 261 262 262 262 261 259 256 252 249 249 252 254 254 251 246 243 244
279 277 272 263 254 248 244 242 242 243 245 249 253 257 259 259 260 266 274 281 287 291 294 295 295 292 290 289 287 285 283 282 281 281 280 280 279 275 271 269 269 269 269 270 272 273 274 274 274 273 272 271 271 270 268 265 262 259 258 257 256 256 256 256 256 257 258 259 260 262 262 261 261 260 259 256 251 247 248 251 252 251 247 244 243
275 275 275 272 262 253 248 244 242 241 244 249 254 259 265 266 264 267 275 283 287 291 293 293 292 290 288 288 287 286 284 282 282 281 280 279 277 273 268 266 267 268 269 271 272 274 274 275 276 275 273 272 271 269 268 266 264 262 260 259 258 257 257 256 255 255 257 258 259 260 261 261 261 261 261 260 257 251 249 250 252 250 247 245 243
271 272 273 273 268 258 248 244 242 240 241 245 249 253 258 259 261 269 277 282 286 289 292 292 291 289 288 287 288 288 287 284 282 280 278 277 275 271 266 266 267 268 268 269 269 271 273 275 276 276 275 273 271 270 268 267 265 263 261 260 260 259 258 256 255 254 255 256 257 258 259 259 260 260 260 260 259 257 254 251 250 249 246 244 243
267 267 266 267 269 263 253 249 248 248 250 251 252 257 258 256 261 272 278 282 286 290 291 290 290 291 290 289 290 291 291 288 284 281 277 275 273 270 267 268 268 267 266 265 265 267 270 272 274 274 274 273 272 271 270 269 268 266 264 263 262 261 260 257 256 254 253 253 255 256 257 258 259 259 259 258 257 257 256 253 251 250 248 246 245
259 259 257 259 263 261 255 253 253 256 259 258 258 261 262 260 264 274 279 283 288 290 290 290 292 294 293 293 294 294 293 291 287 283 279 275 272 270 268 268 269 266 263 261 261 264 267 269 270 272 273 273 272 271 270 270 270 269 267 265 264 264 262 260 258 256 255 254 254 255 256 257 258 258 258 258 256 255 254 253 251 249 247 246 246
250 249 250 252 256 254 249 249 252 256 260 259 259 260 261 261 268 274 279 284 288 289 291 293 295 296 295 295 297 297 295 293 289 285 280 275 271 269 268 268 268 265 259 255 258 262 265 266 267 269 271 272 271 270 269 269 269 269 269 268 266 265 264 263 261 259 258 257 256 256 257 257 258 259 258 257 256 255 254 255 253 251 250 246 242
242 241 243 247 249 247 245 248 254 256 256 255 256 257 258 264 272 278 282 286 289 291 293 295 296 295 294 295 297 296 293 291 289 285 279 273 270 269 268 269 267 262 254 252 257 261 264 267 270 271 272 272 270 268 268 267 267 267 268 269 269 267 265 263 261 259 258 257 256 256 257 257 257 257 256 255 256 255 254 254 253 252 252 244 233
235 234 239 244 245 243 247 253 256 255 254 253 254 259 265 272 278 282 285 288 289 291 294 296 295 294 293 293 293 291 289 288 288 283 277 271 269 268 269 268 264 256 251 253 259 263 266 270 275 278 278 276 272 269 268 267 266 266 266 268 269 268 267 264 261 259 258 257 257 257 257 257 256 256 255 255 253 252 253 251 249 247 244 236 227
235 233 236 239 238 239 246 253 254 255 256 255 257 263 268 273 277 281 285 288 291 293 296 296 295 294 293 293 291 288 287 288 286 282 276 270 268 269 270 268 261 253 251 255 261 266 270 275 281 285 286 283 279 275 273 270 267 264 263 265 267 268 267 263 260 258 257 257 260 261 261 260 258 255 253 250 248 250 251 246 240 235 227 218 216
239 237 237 237 236 238 245 250 254 257 258 257 258 260 264 271 278 283 287 290 292 294 295 294 293 294 295 293 289 287 289 290 287 282 275 270 268 269 270 267 258 251 250 255 262 268 274 281 287 290 291 290 287 284 281 278 271 264 260 262 266 268 267 262 258 256 255 255 258 259 260 259 255 250 247 246 247 248 242 230 220 214 210 210 215
242 239 238 237 238 241 246 250 254 256 256 255 254 256 266 277 282 285 288 290 290 291 292 291 292 296 296 291 285 284 289 292 290 283 277 272 270 270 271 269 261 254 251 253 260 269 278 285 290 293 295 295 293 290 288 284 277 269 264 264 266 267 266 262 257 256 258 258 257 256 255 253 250 250 246 238 229 225 220 214 211 212 215 222 229
248 243 238 236 237 239 241 245 248 250 251 252 253 261 274 280 282 285 286 286 287 289 290 290 294 298 296 287 280 281 286 290 289 285 281 277 274 273 274 273 268 264 257 252 258 271 281 287 292 297 298 298 295 292 290 286 278 270 267 268 272 271 266 261 254 253 256 256 252 252 254 252 253 252 236 213 200 204 214 219 222 219 218 223 230
253 249 244 240 238 237 236 237 239 243 248 254 260 268 274 276 278 281 281 281 284 286 287 291 298 300 294 283 277 278 283 286 285 283 281 279 278 277 275 270 268 266 256 249 256 272 282 289 296 299 299 298 294 290 287 283 279 273 266 265 269 271 268 264 258 254 253 250 244 238 236 239 246 246 225 207 200 205 213 216 217 215 216 223 228
260 254 251 247 243 240 238 236 238 243 250 257 261 266 270 273 275 276 276 279 283 285 290 298 301 298 289 279 275 277 280 282 282 281 280 280 282 284 278 267 263 260 251 246 258 275 282 290 297 300 298 296 293 286 276 272 276 277 269 263 264 266 267 265 261 257 252 247 242 236 229 232 243 244 230 217 212 213 217 222 227 227 226 228 226
281 270 262 257 251 245 238 235 240 251 258 261 263 264 267 270 273 274 277 282 286 292 298 302 300 294 284 274 273 276 280 282 282 282 282 281 283 289 285 269 258 252 248 252 266 276 282 291 298 300 299 295 292 288 274 263 267 271 267 262 262 265 267 267 263 260 255 247 241 238 237 240 244 242 234 227 224 224 229 233 235 234 233 230 219
298 287 273 263 257 251 242 239 249 260 265 268 269 268 268 270 271 272 276 283 289 293 296 298 296 290 280 272 273 276 279 282 283 284 284 282 280 283 284 271 255 250 253 263 269 272 282 293 298 303 303 297 291 286 271 257 259 265 263 259 260 264 269 270 264 259 256 250 241 236 235 236 237 236 236 236 232 225 221 222 223 223 223 217 203
299 295 280 264 256 252 247 248 256 261 264 267 267 267 267 267 266 267 272 280 286 289 293 295 292 283 274 271 272 273 275 279 283 286 286 282 275 272 271 264 257 257 262 263 262 265 282 296 300 303 303 297 288 279 265 253 253 261 261 258 259 261 264 263 257 252 248 244 238 232 228 227 227 227 229 232 225 206 191 191 193 194 194 191 186
289 294 287 272 259 251 245 247 255 258 260 264 265 265 265 264 264 266 272 278 282 286 292 291 283 272 267 268 268 269 272 277 282 286 285 276 266 261 260 259 257 258 256 253 253 261 277 291 297 297 296 292 284 271 259 250 247 252 258 259 258 257 254 248 242 240 239 236 232 225 218 214 211 208 206 205 199 186 180 185 189 187 186 189 195
278 286 290 283 269 254 243 242 248 253 259 264 266 265 264 264 264 268 272 276 281 287 290 287 274 263 264 265 263 265 268 273 280 283 277 263 253 254 259 260 257 253 249 248 254 262 270 279 289 291 286 284 281 271 261 255 252 246 242 245 246 243 240 235 230 230 231 228 223 216 207 200 195 191 186 182 182 184 188 193 196 195 194 198 202
270 277 287 290 282 266 250 242 242 249 258 264 264 263 262 261 263 267 271 276 283 288 288 280 265 260 263 263 260 260 262 268 277 276 258 243 248 257 257 253 246 244 248 253 259 265 266 271 283 287 278 270 273 273 266 260 254 237 219 217 221 221 219 217 217 220 223 220 215 209 202 193 187 184 183 181 182 189 195 197 198 197 198 201 203
264 269 278 288 289 278 262 249 243 245 254 258 258 258 259 258 259 264 271 280 288 290 285 271 257 256 261 261 258 256 256 264 270 261 236 229 239 241 232 228 230 237 246 253 260 268 269 271 280 286 279 266 264 268 265 256 247 237 226 220 220 221 219 214 206 201 203 207 209 208 204 197 189 186 188 189 189 192 196 197 198 198 200 203 205
259 262 270 280 286 284 275 262 250 245 250 255 255 254 255 254 256 263 276 289 296 294 283 264 253 253 258 258 255 251 251 257 260 248 231 225 225 226 228 229 229 232 237 245 256 267 274 276 279 283 282 271 261 261 262 252 240 235 235 233 228 223 219 216 208 197 191 194 198 199 200 200 198 196 196 196 196 197 197 196 197 201 204 206 207
256 257 261 269 278 283 281 272 259 249 249 252 251 249 252 253 255 265 282 297 304 300 283 263 253 252 255 255 252 248 245 248 249 243 234 227 225 230 238 239 238 238 241 247 256 262 267 270 271 275 278 274 262 255 257 252 240 230 228 228 223 216 211 210 205 195 186 182 182 183 185 189 194 198 199 198 199 199 198 197 200 204 206 207 208
257 255 255 259 268 277 281 278 268 255 249 249 247 247 253 258 261 271 284 296 306 306 288 264 252 251 253 253 250 245 241 240 242 241 237 233 230 234 239 242 243 246 249 253 257 258 259 260 262 265 271 271 263 253 250 245 235 226 221 217 210 203 201 203 199 190 181 173 168 167 170 176 186 193 194 193 194 196 197 199 205 209 211 213 214
257 254 251 251 258 267 275 278 274 263 255 252 249 249 256 262 267 275 282 290 303 311 296 268 253 250 252 252 250 244 239 237 238 239 239 238 237 239 243 245 246 248 252 255 258 258 256 256 256 258 263 267 263 252 244 235 225 220 221 217 208 201 202 204 199 193 186 178 171 168 169 172 177 181 184 187 191 194 198 203 208 212 216 220 223
259 256 252 248 250 256 265 272 274 269 261 257 255 256 261 266 269 274 281 287 297 308 303 279 258 251 251 252 249 244 239 237 238 239 240 241 242 244 247 249 250 252 254 256 259 258 256 254 253 252 255 260 259 252 242 233 223 218 220 222 218 212 209 208 206 202 195 188 182 180 179 178 177 178 184 193 199 204 208 212 215 218 222 225 228
263 261 256 250 247 249 255 262 266 265 261 260 261 264 266 267 268 272 279 285 292 301 304 292 267 253 251 250 249 246 241 238 239 242 243 245 247 249 251 253 256 257 257 256 257 257 256 254 253 251 249 252 254 250 243 235 227 223 224 227 227 222 214 209 207 206 204 201 199 198 198 198 195 193 196 205 212 216 220 222 225 227 230 231 233
265 265 262 255 249 246 247 252 257 260 261 261 262 263 264 265 267 271 275 280 286 294 301 298 279 258 250 249 249 248 245 241 241 243 245 248 251 253 255 257 258 258 257 255 254 254 254 254 253 250 248 248 249 249 245 239 232 228 226 228 230 227 219 213 211 213 219 225 225 221 219 219 217 216 219 224 228 231 233 233 234 235 236 237 239
265 266 265 260 254 248 245 245 249 255 260 260 260 260 262 264 267 270 273 277 282 288 294 297 287 265 251 248 248 248 247 245 244 244 246 248 251 253 255 256 256 256 255 253 251 251 251 251 251 250 248 246 247 248 247 243 237 231 229 230 233 232 226 221 221 223 223 220 215 212 216 222 227 231 236 239 242 243 244 243 242 240 239 239 241
264 264 264 263 258 252 247 244 245 249 254 259 260 261 261 263 266 268 271 274 279 282 286 291 291 277 257 248 246 246 246 246 245 245 246 248 250 252 254 255 255 255 254 253 252 251 249 247 248 248 247 246 246 247 246 244 240 235 230 229 231 232 228 224 223 223 219 214 211 213 218 223 231 240 246 249 250 249 248 248 248 245 242 241 241
262 261 262 262 260 255 249 245 244 245 248 253 258 261 263 264 266 267 268 270 273 276 278 283 288 286 272 254 245 243 245 246 247 247 248 248 250 252 254 255 255 256 255 254 253 253 251 249 247 245 245 246 247 247 247 246 245 242 238 233 231 231 230 229 228 226 221 218 219 222 225 229 237 246 251 253 252 250 248 248 249 248 246 244 242
261 261 261 261 260 256 251 247 245 245 246 249 254 259 263 265 265 266 266 266 267 269 271 275 281 284 280 267 253 245 244 245 247 248 249 251 252 253 254 255 255 255 256 255 255 254 254 253 251 248 245 244 245 246 247 247 247 247 245 241 237 234 232 232 233 232 229 227 228 231 233 235 240 247 253 256 255 251 248 247 247 248 249 249 247
261 262 261 260 259 256 252 249 246 246 246 248 251 254 257 260 263 265 266 265 265 265 267 269 273 278 278 273 263 252 246 245 246 247 249 251 252 253 254 254 254 254 254 255 255 255 254 254 254 253 251 248 247 247 247 247 248 249 249 248 245 240 236 235 235 235 234 232 233 235 236 236 237 241 248 255 257 256 253 251 251 251 251 253 254
262 261 259 258 257 255 252 250 247 246 246 247 249 250 252 255 260 263 266 267 267 266 265 264 266 270 272 271 266 259 251 247 246 246 247 248 248 249 251 252 254 256 256 255 255 256 255 255 255 255 255 254 253 252 251 251 251 251 252 252 251 248 243 239 237 236 236 235 235 235 236 237 237 239 242 247 252 256 258 261 263 264 263 263 264
261 258 256 255 254 252 251 249 248 246 245 246 249 250 250 251 255 260 264 267 267 266 265 263 261 262 264 265 264 262 257 252 248 245 244 243 244 246 249 252 254 256 257 256 255 254 254 255 255 256 256 257 257 258 258 257 257 257 257 256 256 254 251 247 242 238 237 237 237 237 238 241 242 242 242 243 246 249 253 258 264 269 272 274 275
Height
3126 3127 3128 3129 3130 3130 3131 3132 3133 3134 3135 3135 3136 3136 3136 3136 3136 3135 3135 3135 3135 3135 3136 3136 3136 3136 3136 3136 3135 3135 3135 3135 3135 3135 3135 3136 3137 3138 3139 3140 3140 3141 3141 3142 3143 3142 3143 3143 3144 3145 3146 3147 3148 3149 3150 3152 3152 3153 3154 3154 3155 3156 3156 3157 3159 3161 3163 3164 3164 3164 3164 3164 3164 3165 3165 3166 3166 3165 3165 3164 3165 3165 3164 3165 3165
3122 3123 3124 3124 3125 3126 3127 3129 3130 3131 3131 3132 3133 3133 3133 3133 3132 3132 3132 3132 3132 3132 3132 3132 3132 3132 3132 3132 3132 3132 3132 3131 3131 3132 3132 3132 3133 3134 3135 3136 3137 3138 3138 3139 3139 3140 3140 3140 3141 3141 3142 3143 3144 3146 3147 3148 3149 3150 3151 3152 3152 3153 3153 3153 3154 3156 3159 3161 3161 3161 3161 3161 3161 3162 3163 3163 3163 3163 3163 3161 3160 3160 3161 3162 3162
3119 3120 3121 3121 3121 3122 3123 3124 3125 3126 3128 3129 3130 3130 3130 3129 3129 3129 3129 3128 3128 3128 3128 3128 3128 3128 3129 3128 3128 3128 3128 3128 3128 3128 3128 3129 3129 3131 3131 3132 3133 3134 3134 3134 3135 3136 3137 3137 3137 3138 3138 3139 3140 3142 3143 3144 3145 3146 3147 3148 3149 3150 3150 3150 3150 3152 3154 3156 3158 3158 3158 3158 3158 3158 3159 3160 3161 3161 3160 3158 3157 3159 3161 3161 3160
3115 3116 3116 3117 3118 3119 3120 3122 3122 3122 3123 3124 3126 3126 3126 3126 3126 3126 3126 3125 3125 3124 3124 3124 3125 3125 3125 3125 3124 3124 3124 3124 3124 3124 3125 3125 3125 3126 3127 3128 3128 3129 3130 3130 3131 3132 3133 3134 3135 3134 3134 3135 3137 3138 3139 3140 3141 3141 3143 3144 3145 3146 3146 3146 3147 3148 3149 3151 3153 3155 3155 3155 3155 3155 3156 3157 3158 3157 3157 3156 3157 3159 3160 3159 3159
3111 3111 3111 3112 3112 3114 3116 3118 3119 3119 3120 3121 3121 3122 3122 3122 3123 3123 3123 3122 3121 3121 3121 3121 3121 3121 3121 3121 3121 3121 3120 3120 3120 3120 3121 3121 3121 3122 3123 3123 3124 3125 3125 3126 3127 3128 3129 3130 3131 3131 3131 3132 3134 3135 3135 3136 3137 3137 3138 3140 3141 3142 3142 3142 3143 3144 3144 3146 3149 3150 3151 3151 3152 3152 3153 3154 3155 3154 3154 3154 3156 3157 3157 3157 3157
3107 3106 3107 3108 3108 3109 3110 3112 3114 3117 3118 3117 3117 3118 3119 3120 3120 3120 3120 3119 3118 3118 3118 3117 3117 3117 3117 3117 3117 3117 3116 3116 3116 3116 3117 3117 3117 3118 3118 3119 3119 3120 3121 3122 3122 3123 3124 3126 3127 3128 3127 3128 3130 3131 3131 3131 3132 3133 3134 3135 3137 3137 3137 3138 3139 3139 3140 3142 3144 3145 3147 3148 3148 3149 3149 3150 3151 3151 3151 3152 3153 3153 3154 3154 3155
3102 3101 3102 3103 3104 3105 3107 3108 3110 3111 3112 3112 3113 3115 3116 3116 3116 3116 3116 3116 3115 3114 3114 3114 3113 3113 3113 3112 3112 3112 3112 3112 3112 3112 3112 3112 3113 3113 3113 3114 3114 3115 3116 3117 3117 3119 3120 3121 3122 3123 3123 3124 3125 3126 3127 3127 3128 3129 3130 3131 3132 3132 3133 3134 3135 3135 3136 3137 3139 3141 3142 3144 3144 3145 3146 3147 3147 3148 3148 3149 3150 3150 3151 3151 3151
3099 3097 3097 3097 3098 3101 3103 3104 3105 3105 3106 3108 3110 3111 3112 3112 3113 3113 3113 3113 3112 3111 3111 3110 3109 3109 3108 3108 3108 3108 3108 3107 3107 3107 3107 3108 3108 3108 3109 3109 3109 3110 3111 3111 3112 3113 3114 3116 3117 3118 3118 3119 3121 3122 3122 3123 3124 3125 3126 3127 3127 3128 3129 3129 3130 3131 3131 3133 3134 3136 3138 3139 3139 3140 3142 3143 3144 3145 3146 3147 3147 3147 3147 3147 3147
3095 3094 3093 3093 3094 3096 3097 3098 3099 3101 3102 3105 3107 3107 3107 3108 3109 3110 3110 3110 3109 3108 3107 3106 3106 3105 3104 3104 3104 3104 3104 3103 3103 3103 3103 3103 3103 3103 3104 3104 3105 3105 3106 3107 3107 3108 3109 3110 3112 3113 3114 3114 3116 3117 3118 3118 3119 3120 3122 3123 3123 3123 3124 3125 3126 3126 3127 3128 3129 3131 3132 3134 3135 3136 3138 3139 3140 3141 3142 3143 3143 3143 3143 3143 3143
3090 3089 3089 3090 3090 3091 3092 3093 3094 3096 3099 3101 3102 3103 3104 3105 3106 3106 3107 3106 3106 3104 3104 3103 3102 3101 3101 3100 3100 3100 3100 3099 3099 3098 3098 3098 3098 3099 3099 3100 3100 3100 3101 3102 3103 3103 3104 3105 3106 3108 3109 3110 3111 3112 3113 3114 3114 3115 3117 3118 3119 3119 3120 3120 3121 3122 3122 3123 3124 3126 3127 3128 3130 3132 3134 3135 3137 3137 3137 3138 3139 3139 3140 3140 3140
3085 3085 3086 3087 3088 3088 3089 3089 3091 3093 3095 3096 3098 3099 3100 3101 3102 3103 3103 3102 3101 3100 3100 3099 3099 3098 3097 3097 3097 3096 3096 3095 3094 3094 3093 3093 3093 3093 3094 3095 3095 3095 3096 3097 3098 3099 3099 3100 3101 3102 3103 3105 3106 3107 3108 3109 3110 3111 3112 3113 3114 3114 3115 3115 3116 3117 3118 3119 3120 3121 3122 3124 3126 3128 3129 3131 3132 3132 3132 3133 3134 3135 3135 3136 3136
3083 3083 3083 3084 3085 3086 3087 3087 3088 3090 3091 3093 3094 3096 3097 3098 3099 3099 3099 3098 3097 3097 3096 3096 3095 3094 3094 3093 3093 3092 3092 3091 3090 3089 3089 3088 3088 3088 3089 3090 3090 3090 3091 3091 3092 3093 3094 3094 3095 3097 3098 3099 3101 3102 3103 3104 3105 3106 3107 3108 3109 3109 3110 3111 3112 3113 3114 3115 3115 3116 3117 3120 3122 3123 3124 3126 3127 3128 3128 3129 3130 3131 3131 3132 3133
3081 3081 3081 3082 3082 3083 3084 3085 3086 3087 3088 3090 3091 3092 3094 3095 3096 3096 3095 3095 3094 3093 3093 3092 3091 3091 3090 3089 3088 3087 3087 3086 3085 3084 3084 3083 3083 3083 3084 3084 3085 3085 3086 3086 3087 3088 3088 3089 3090 3091 3092 3094 3095 3096 3098 3099 3100 3101 3102 3103 3103 3105 3106 3107 3108 3109 3109 3110 3110 3111 3113 3116 3117 3118 3120 3122 3123 3123 3124 3125 3126 3126 3127 3128 3129
3079 3079 3079 3080 3080 3081 3082 3082 3084 3085 3086 3087 3088 3089 3091 3091 3092 3092 3092 3091 3090 3090 3089 3088 3088 3087 3086 3085 3084 3083 3082 3081 3080 3079 3079 3079 3079 3079 3079 3080 3080 3081 3081 3082 3082 3083 3083 3084 3085 3086 3087 3088 3089 3091 3092 3093 3094 3095 3096 3097 3098 3100 3101 3102 3103 3105 3105 3105 3106 3107 3109 3111 3112 3114 3116 3117 3117 3117 3118 3120 3121 3122 3123 3124 3125
3076 3077 3077 3077 3078 3078 3079 3080 3081 3082 3083 3084 3085 3086 3087 3088 3088 3088 3088 3088 3087 3087 3086 3085 3084 3083 3082 3081 3080 3079 3078 3077 3076 3075 3075 3075 3075 3075 3075 3075 3076 3077 3077 3078 3078 3078 3078 3079 3079 3080 3081 3083 3084 3085 3086 3087 3088 3089 3091 3092 3093 3095 3096 3098 3099 3100 3101 3101 3101 3103 3105 3106 3107 3109 3110 3110 3111 3112 3113 3115 3116 3118 3118 3118 3119
3073 3074 3074 3075 3075 3076 3076 3077 3078 3079 3081 3081 3082 3083 3083 3084 3084 3085 3084 3084 3084 3083 3083 3082 3081 3080 3079 3077 3076 3075 3074 3073 3071 3070 3070 3070 3071 3071 3071 3071 3072 3073 3073 3074 3074 3074 3074 3074 3074 3075 3076 3077 3078 3079 3080 3081 3082 3083 3085 3086 3088 3090 3091 3093 3095 3095 3096 3097 3097 3098 3100 3101 3101 3102 3102 3103 3104 3105 3107 3108 3110 3112 3113 3113 3114
3070 3071 3072 3072 3073 3073 3074 3074 3075 3076 3077 3077 3078 3079 3079 3080 3081 3081 3081 3081 3080 3080 3079 3078 3077 3076 3075 3074 3072 3071 3070 3069 3067 3066 3066 3066 3066 3067 3067 3067 3068 3069 3069 3069 3069 3070 3070 3070 3070 3071 3072 3073 3073 3074 3075 3076 3077 3078 3079 3080 3082 3084 3086 3089 3090 3090 3091 3092 3092 3093 3095 3096 3096 3096 3096 3097 3098 3100 3101 3102 3104 3106 3107 3108 3109
3067 3067 3068 3069 3069 3070 3071 3071 3072 3073 3073 3074 3076 3076 3076 3077 3078 3078 3077 3077 3077 3076 3075 3074 3074 3072 3071 3070 3068 3067 3066 3065 3063 3062 3062 3062 3062 3063 3063 3064 3064 3065 3065 3066 3065 3065 3066 3066 3066 3066 3067 3068 3069 3069 3070 3070 3071 3073 3074 3075 3076 3078 3080 3083 3084 3084 3085 3086 3087 3088 3089 3090 3091 3091 3091 3092 3093 3094 3095 3096 3099 3101 3102 3103 3106
3063 3064 3064 3065 3065 3066 3066 3067 3068 3069 3070 3071 3072 3072 3072 3073 3074 3074 3074 3074 3073 3072 3072 3071 3070 3068 3067 3065 3064 3063 3062 3062 3060 3058 3058 3057 3058 3059 3059 3060 3061 3061 3062 3062 3062 3062 3062 3062 3062 3063 3063 3064 3065 3065 3065 3065 3066 3068 3069 3069 3070 3072 3075 3077 3077 3078 3079 3080 3081 3082 3084 3085 3085 3086 3087 3087 3087 3088 3090 3092 3094 3096 3098 3099 3100
3059 3060 3060 3061 3061 3062 3062 3063 3064 3066 3067 3068 3068 3068 3069 3070 3070 3070 3071 3070 3069 3069 3068 3067 3065 3064 3063 3061 3060 3059 3058 3057 3056 3054 3054 3054 3054 3055 3056 3056 3057 3057 3058 3059 3059 3059 3059 3060 3060 3060 3060 3060 3061 3061 3061 3061 3061 3062 3064 3064 3065 3066 3069 3070 3071 3071 3072 3073 3075 3076 3077 3079 3080 3081 3081 3082 3082 3084 3085 3087 3089 3091 3093 3094 3094
3055 3056 3056 3057 3057 3058 3059 3060 3061 3062 3064 3064 3065 3065 3066 3066 3067 3067 3067 3066 3065 3065 3064 3062 3061 3060 3059 3057 3056 3056 3054 3053 3052 3050 3049 3050 3050 3051 3052 3053 3053 3054 3055 3056 3056 3056 3057 3057 3057 3057 3057 3057 3057 3057 3057 3056 3056 3057 3058 3059 3060 3061 3062 3064 3065 3065 3066 3067 3069 3070 3071 3072 3073 3075 3076 3076 3078 3079 3081 3082 3083 3084 3087 3089 3090
3051 3052 3053 3054 3055 3056 3056 3057 3058 3059 3060 3060 3061 3061 3062 3063 3063 3063 3063 3062 3061 3061 3060 3058 3057 3056 3055 3054 3053 3052 3051 3049 3048 3047 3046 3046 3047 3048 3049 3049 3050 3051 3052 3053 3053 3053 3054 3054 3054 3054 3054 3054 3054 3053 3053 3052 3052 3052 3053 3054 3055 3056 3057 3058 3059 3060 3060 3062 3063 3064 3065 3066 3068 3069 3070 3071 3072 3074 3076 3077 3076 3079 3083 3086 3088
3047 3048 3050 3051 3052 3052 3053 3054 3055 3056 3056 3057 3057 3058 3059 3059 3059 3059 3059 3058 3057 3057 3056 3054 3053 3052 3052 3051 3050 3049 3048 3046 3045 3044 3044 3043 3044 3045 3046 3046 3047 3048 3049 3050 3051 3051 3051 3051 3051 3051 3051 3050 3050 3049 3049 3048 3048 3048 3048 3049 3050 3051 3052 3052 3053 3054 3054 3056 3057 3058 3059 3060 3062 3063 3065 3066 3068 3069 3071 3072 3072 3075 3079 3081 3081
3044 3045 3046 3047 3048 3049 3050 3051 3051 3052 3053 3054 3054 3055 3055 3056 3055 3055 3055 3054 3054 3053 3052 3051 3049 3049 3048 3048 3047 3046 3045 3044 3043 3043 3042 3041 3041 3042 3043 3044 3044 3045 3046 3047 3048 3048 3048 3048 3048 3048 3048 3047 3046 3045 3045 3044 3044 3044 3044 3045 3045 3046 3046 3047 3047 3048 3048 3049 3050 3051 3053 3054 3056 3058 3059 3061 3062 3064 3065 3066 3067 3069 3072 3074 3075
3040 3042 3042 3043 3045 3046 3047 3047 3048 3049 3050 3051 3051 3052 3052 3052 3052 3052 3051 3051 3050 3050 3049 3047 3046 3045 3045 3044 3044 3043 3042 3041 3041 3040 3039 3039 3039 3039 3040 3041 3042 3042 3044 3044 3045 3045 3045 3045 3046 3045 3045 3043 3042 3042 3041 3040 3040 3040 3040 3040 3041 3041 3041 3042 3042 3043 3043 3044 3045 3046 3048 3049 3050 3052 3053 3054 3056 3057 3058 3059 3060 3062 3065 3067 3069
3038 3039 3039 3040 3042 3043 3043 3044 3045 3046 3047 3047 3048 3048 3048 3048 3049 3048 3048 3048 3047 3046 3045 3044 3043 3042 3041 3041 3040 3040 3039 3038 3038 3037 3036 3036 3036 3037 3037 3038 3039 3040 3041 3041 3042 3042 3042 3043 3043 3042 3041 3040 3039 3038 3037 3037 3036 3036 3036 3036 3037 3037 3037 3037 3038 3039 3039 3041 3042 3043 3043 3044 3045 3047 3048 3049 3050 3052 3053 3053 3054 3056 3060 3063 3064
3036 3036 3037 3038 3039 3040 3041 3042 3042 3043 3043 3044 3044 3044 3045 3045 3046 3046 3046 3045 3044 3043 3042 3041 3040 3039 3038 3038 3037 3037 3036 3036 3035 3034 3033 3033 3034 3034 3034 3035 3036 3037 3038 3038 3039 3039 3039 3039 3039 3039 3038 3037 3036 3035 3034 3033 3033 3032 3032 3033 3033 3033 3033 3034 3035 3036 3036 3037 3038 3039 3040 3040 3041 3042 3043 3045 3046 3048 3050 3051 3052 3054 3057 3060 3062
3034 3034 3035 3035 3036 3036 3037 3038 3039 3040 3040 3040 3041 3041 3042 3043 3043 3043 3043 3042 3041 3040 3039 3038 3037 3036 3035 3035 3034 3034 3034 3033 3032 3031 3030 3030 3031 3031 3031 3032 3033 3034 3034 3035 3036 3036 3036 3036 3036 3036 3035 3033 3032 3032 3031 3030 3029 3029 3029 3030 3030 3030 3031 3032 3032 3033 3034 3034 3035 3036 3036 3037 3038 3039 3040 3042 3043 3045 3047 3048 3049 3051 3054 3056 3058
3033 3033 3033 3033 3033 3034 3035 3035 3036 3037 3037 3038 3038 3039 3040 3040 3040 3040 3040 3039 3038 3037 3036 3035 3035 3034 3032 3032 3031 3031 3031 3030 3029 3028 3028 3028 3028 3028 3028 3028 3029 3030 3030 3031 3033 3033 3033 3033 3033 3032 3031 3030 3030 3029 3029 3028 3027 3026 3027 3027 3028 3028 3029 3030 3030 3031 3032 3032 3033 3033 3034 3035 3036 3038 3039 3040 3040 3042 3044 3045 3047 3049 3051 3053 3055
3031 3031 3031 3031 3031 3032 3032 3033 3034 3034 3035 3035 3036 3036 3037 3037 3037 3037 3037 3035 3034 3034 3033 3033 3032 3030 3030 3029 3029 3028 3028 3027 3026 3026 3025 3025 3025 3025 3024 3024 3024 3026 3027 3029 3030 3031 3031 3030 3030 3030 3029 3028 3027 3027 3027 3026 3024 3024 3024 3025 3025 3026 3027 3028 3028 3028 3029 3030 3031 3032 3033 3034 3035 3037 3038 3038 3039 3040 3042 3044 3046 3048 3049 3050 3052
3029 3029 3029 3029 3029 3030 3030 3031 3032 3032 3032 3033 3033 3033 3034 3034 3034 3034 3033 3032 3031 3031 3030 3030 3028 3027 3026 3026 3026 3025 3025 3024 3024 3023 3023 3023 3023 3023 3021 3021 3022 3023 3025 3027 3028 3028 3028 3028 3028 3027 3026 3026 3025 3025 3025 3024 3023 3022 3021 3022 3023 3024 3025 3025 3026 3026 3027 3028 3029 3030 3032 3033 3034 3035 3036 3037 3037 3038 3040 3042 3044 3045 3047 3048 3050
3027 3027 3027 3027 3027 3028 3028 3028 3029 3029 3030 3030 3030 3030 3031 3031 3031 3030 3030 3029 3029 3028 3027 3026 3025 3024 3023 3023 3023 3023 3022 3022 3022 3021 3021 3021 3021 3021 3021 3020 3021 3022 3024 3025 3026 3026 3027 3026 3026 3025 3024 3024 3023 3023 3022 3022 3021 3020 3019 3019 3020 3021 3022 3023 3023 3024 3024 3025 3026 3028 3029 3030 3031 3033 3034 3035 3036 3036 3037 3038 3040 3041 3043 3045 3047
3026 3025 3025 3025 3025 3025 3025 3026 3026 3026 3027 3027 3027 3027 3027 3027 3027 3027 3026 3026 3026 3025 3024 3023 3022 3021 3020 3020 3020 3020 3020 3020 3019 3019 3019 3019 3019 3020 3020 3020 3021 3022 3022 3023 3024 3025 3025 3024 3024 3023 3023 3022 3022 3021 3021 3020 3019 3018 3017 3017 3018 3019 3020 3021 3021 3022 3022 3023 3024 3025 3026 3027 3028 3030 3032 3033 3034 3034 3034 3036 3038 3040 3041 3043 3045
3024 3023 3023 3022 3022 3022 3022 3023 3023 3023 3023 3023 3023 3024 3024 3023 3023 3023 3023 3023 3022 3022 3021 3020 3018 3017 3017 3017 3018 3018 3018 3017 3017 3017 3017 3017 3017 3018 3018 3019 3019 3020 3021 3021 3022 3023 3023 3023 3022 3022 3021 3021 3020 3020 3019 3018 3017 3017 3016 3016 3016 3017 3017 3018 3018 3019 3020 3021 3022 3023 3024 3025 3026 3027 3029 3030 3032 3033 3034 3036 3038 3040 3041 3042 3045
3022 3021 3020 3020 3019 3019 3019 3020 3020 3020 3020 3020 3020 3020 3020 3020 3020 3020 3020 3020 3019 3018 3017 3016 3015 3014 3014 3015 3016 3016 3016 3015 3015 3015 3015 3015 3016 3016 3017 3017 3017 3018 3019 3020 3020 3021 3021 3021 3021 3021 3020 3019 3019 3018 3018 3017 3016 3016 3016 3016 3016 3016 3015 3016 3016 3017 3018 3019 3020 3021 3021 3022 3023 3024 3025 3027 3029 3031 3034 3036 3037 3039 3040 3042 3044
3019 3019 3018 3017 3016 3016 3016 3016 3016 3016 3017 3017 3017 3017 3017 3017 3017 3017 3017 3016 3015 3014 3014 3013 3012 3011 3012 3013 3013 3013 3014 3014 3013 3013 3014 3014 3015 3015 3015 3015 3016 3017 3017 3018 3019 3020 3020 3020 3019 3019 3019 3018 3017 3017 3016 3015 3015 3015 3015 3016 3016 3016 3016 3015 3015 3016 3017 3018 3019 3020 3020 3021 3021 3022 3023 3025 3027 3029 3031 3033 3035 3036 3038 3040 3043
3016 3016 3015 3015 3014 3014 3013 3013 3013 3013 3014 3014 3014 3014 3014 3014 3014 3013 3013 3012 3012 3011 3010 3009 3009 3009 3009 3010 3011 3011 3012 3012 3012 3012 3013 3013 3014 3014 3014 3014 3015 3016 3016 3017 3018 3018 3018 3018 3018 3017 3017 3016 3016 3015 3015 3014 3014 3014 3014 3015 3015 3015 3015 3015 3015 3016 3017 3018 3019 3020 3021 3021 3021 3021 3022 3024 3025 3027 3029 3031 3033 3035 3037 3039 3041
3013 3013 3013 3013 3012 3011 3011 3010 3010 3010 3010 3011 3011 3011 3011 3010 3010 3010 3009 3009 3009 3008 3007 3006 3006 3006 3007 3008 3008 3008 3009 3010 3010 3010 3011 3012 3012 3013 3013 3013 3014 3014 3015 3016 3016 3016 3016 3016 3016 3016 3015 3015 3014 3014 3013 3013 3013 3013 3013 3013 3014 3014 3015 3015 3015 3016 3016 3017 3018 3019 3020 3020 3021 3021 3022 3024 3025 3026 3028 3030 3032 3034 3036 3038 3040
3010 3011 3011 3010 3010 3009 3008 3008 3007 3007 3007 3008 3008 3008 3008 3007 3007 3006 3006 3006 3006 3005 3004 3003 3003 3004 3005 3005 3005 3006 3007 3008 3008 3008 3009 3010 3010 3011 3011 3012 3012 3013 3013 3014 3014 3014 3014 3014 3014 3014 3014 3013 3013 3012 3012 3012 3012 3012 3012 3012 3013 3013 3014 3014 3015 3015 3015 3016 3017 3018 3018 3019 3020 3021 3022 3024 3025 3027 3028 3029 3031 3033 3035 3038 3040
3008 3008 3008 3008 3008 3007 3006 3006 3005 3005 3005 3005 3005 3005 3005 3005 3004 3004 3003 3003 3003 3002 3001 3001 3001 3002 3002 3002 3002 3003 3004 3005 3006 3006 3006 3007 3008 3008 3009 3010 3010 3011 3011 3011 3011 3012 3012 3012 3012 3012 3012 3012 3011 3010 3010 3010 3010 3010 3011 3011 3011 3012 3013 3014 3014 3015 3015 3015 3016 3017 3018 3018 3019 3021 3022 3023 3025 3026 3027 3029 3030 3032 3034 3036 3038
3004 3005 3005 3005 3005 3005 3004 3003 3003 3003 3003 3003 3003 3003 3003 3002 3002 3001 3001 3001 3001 3000 2999 2999 2999 2999 2999 2999 2999 3000 3001 3002 3003 3004 3004 3005 3005 3006 3006 3007 3007 3008 3008 3009 3009 3009 3009 3009 3009 3010 3010 3010 3009 3009 3009 3009 3009 3009 3010 3010 3010 3011 3012 3013 3014 3014 3015 3015 3016 3016 3017 3018 3019 3021 3022 3023 3024 3025 3027 3028 3029 3031 3033 3034 3035
3001 3001 3002 3002 3002 3002 3002 3001 3001 3001 3001 3001 3001 3001 3001 3000 3000 2999 2998 2998 2998 2997 2997 2996 2996 2996 2996 2996 2996 2997 2998 3000 3001 3001 3002 3003 3003 3003 3004 3005 3005 3005 3006 3006 3006 3006 3007 3007 3007 3007 3007 3008 3008 3008 3008 3007 3007 3008 3008 3008 3009 3010 3011 3012 3013 3014 3014 3015 3016 3017 3017 3018 3019 3021 3022 3023 3024 3025 3026 3027 3029 3030 3031 3032 3034
2998 2998 2999 2999 2999 2999 2999 2999 2999 2999 2998 2998 2998 2998 2998 2998 2998 2997 2996 2996 2995 2995 2995 2994 2994 2993 2993 2993 2993 2994 2995 2997 2998 2999 3000 3000 3001 3001 3002 3002 3002 3003 3003 3003 3003 3003 3004 3004 3004 3005 3005 3005 3006 3006 3006 3006 3006 3006 3007 3007 3008 3008 3009 3011 3012 3013 3014 3015 3016 3017 3017 3018 3019 3020 3021 3022 3023 3024 3025 3026 3027 3028 3029 3030 3031
2994 2994 2995 2995 2996 2996 2996 2996 2997 2996 2996 2996 2996 2996 2996 2995 2995 2994 2993 2993 2993 2993 2992 2992 2991 2991 2990 2990 2991 2991 2993 2994 2995 2996 2997 2998 2998 2999 2999 2999 3000 3000 3000 3000 3000 3000 3001 3002 3002 3002 3003 3003 3003 3004 3004 3004 3004 3005 3005 3006 3006 3007 3008 3009 3010 3012 3013 3014 3014 3015 3016 3017 3018 3019 3020 3021 3022 3023 3024 3025 3026 3027 3028 3028 3029
2990 2990 2991 2991 2992 2992 2993 2993 2993 2994 2994 2993 2993 2993 2993 2992 2992 2991 2991 2990 2990 2990 2990 2989 2989 2988 2988 2988 2988 2989 2990 2991 2992 2993 2994 2995 2995 2996 2996 2996 2997 2997 2997 2997 2997 2997 2998 2999 2999 3000 3001 3001 3001 3002 3002 3003 3003 3003 3004 3004 3005 3006 3007 3008 3009 3010 3011 3012 3013 3014 3014 3015 3016 3017 3018 3019 3020 3021 3022 3023 3023 3024 3025 3026 3026
2986 2986 2987 2987 2988 2988 2989 2990 2990 2990 2991 2990 2990 2990 2990 2989 2989 2989 2988 2988 2988 2987 2987 2987 2986 2985 2985 2985 2985 2986 2987 2988 2989 2990 2991 2992 2992 2993 2993 2993 2994 2994 2994 2994 2994 2994 2995 2996 2996 2997 2998 2999 2999 2999 3000 3000 3001 3001 3002 3002 3003 3005 3006 3007 3007 3008 3009 3010 3011 3012 3012 3013 3014 3015 3016 3017 3017 3018 3019 3020 3020 3021 3022 3023 3024
2981 2982 2982 2983 2984 2984 2985 2986 2986 2987 2987 2987 2987 2987 2987 2986 2986 2986 2985 2985 2985 2985 2984 2984 2983 2983 2983 2983 2983 2983 2984 2985 2985 2986 2987 2988 2989 2990 2990 2990 2991 2991 2991 2991 2991 2991 2992 2992 2993 2994 2995 2996 2996 2997 2997 2998 2999 2999 3000 3000 3001 3002 3004 3004 3005 3006 3007 3008 3008 3009 3010 3011 3012 3012 3013 3014 3014 3015 3015 3016 3017 3018 3019 3020 3021
2977 2977 2978 2979 2980 2980 2981 2982 2982 2983 2983 2984 2984 2984 2984 2983 2983 2983 2982 2982 2982 2982 2981 2981 2981 2980 2980 2980 2980 2980 2981 2981 2982 2983 2984 2984 2985 2986 2987 2987 2988 2988 2988 2988 2988 2989 2989 2990 2990 2991 2992 2993 2993 2994 2995 2996 2996 2997 2997 2998 2999 3000 3001 3002 3002 3003 3004 3005 3006 3007 3007 3008 3009 3010 3010 3010 3011 3011 3012 3013 3014 3015 3016 3016 3017
2972 2973 2974 2975 2975 2976 2977 2978 2978 2979 2980 2980 2980 2980 2980 2980 2980 2979 2979 2979 2979 2979 2978 2978 2978 2977 2977 2977 2977 2977 2978 2978 2979 2980 2980 2981 2982 2982 2983 2984 2984 2984 2985 2985 2985 2986 2986 2987 2987 2988 2989 2989 2990 2991 2992 2993 2993 2994 2995 2996 2997 2998 2999 2999 3000 3000 3001 3002 3003 3003 3004 3005 3006 3007 3007 3007 3008 3008 3009 3009 3010 3011 3012 3013 3014
2968 2968 2969 2970 2971 2972 2972 2973 2974 2975 2976 2977 2977 2977 2977 2977 2977 2976 2976 2976 2976 2975 2975 2975 2975 2974 2974 2974 2974 2974 2975 2975 2976 2976 2977 2978 2978 2979 2980 2980 2980 2981 2982 2982 2982 2983 2983 2984 2984 2985 2986 2986 2987 2988 2989 2989 2990 2991 2992 2993 2994 2995 2996 2996 2997 2997 2998 2999 2999 3000 3001 3002 3002 3003 3003 3004 3004 3005 3005 3006 3007 3007 3008 3009 3009
2963 2964 2964 2965 2966 2967 2968 2969 2970 2971 2972 2973 2973 2973 2973 2973 2973 2973 2973 2973 2972 2972 2972 2972 2972 2971 2971 2971 2971 2971 2971 2972 2972 2973 2974 2974 2975 2976 2976 2977 2977 2978 2978 2979 2979 2980 2980 2981 2982 2982 2983 2984 2984 2985 2986 2986 2987 2988 2989 2990 2991 2991 2992 2993 2994 2994 2995 2995 2996 2997 2997 2998 2998 2999 3000 3000 3001 3001 3002 3002 3003 3004 3004 3005 3005